Regional Weather Roundup
Issued by NWS

Home | Current Version | Previous Version | Graphics & Text | Print | Product List | Glossary Off
Versions: 1 2 3 4 5 6 7 8 9 10 11 12 13 14 15 16 17 18 19 20 21 22 23 24 25 26 27 28 29 30 31 32 33 34 35 36 37 38 39 40 41 42 43 44 45 46 47 48 49 50

000
ASUS43 KLMK 250910
RWRKY
KENTUCKY REGIONAL WEATHER ROUNDUP
NATIONAL WEATHER SERVICE LOUISVILLE KY
500 AM EDT FRI MAY 25 2018

NOTE "FAIR" INDICATES FEW OR NO CLOUDS BELOW 12,000 FEET
WITH NO SIGNIFICANT WEATHER AND/OR OBSTRUCTIONS TO VISIBILITY.

KYZ001>023-026-027-061>063-070>075-251000-
WESTERN AND SOUTH CENTRAL KENTUCKY

CITY           SKY/WX    TMP DP  RH WIND       PRES   REMARKS
PADUCAH        FAIR      67  65  93 CALM      29.99F
HENDERSON      NOT AVBL
OWENSBORO      NOT AVBL
HOPKINSVILLE   FAIR      66  66 100 NE3       30.01F
BOWLING GREEN  FAIR      66  65  96 CALM      30.02S
GLASGOW        FAIR      62  60  91 CALM      30.03S
$$

KYZ024-025-028>034-038-045-046-053-251000-
NORTH CENTRAL KENTUCKY

CITY           SKY/WX    TMP DP  RH WIND       PRES   REMARKS
LOUISVILLE/SDF FAIR      67  59  75 E3        30.02F
LOUISVILLE/LOU FAIR      62  60  93 CALM      30.04S
FORT KNOX      FAIR      58  58  99 CALM      30.04S
$$

KYZ035>037-039>044-047>052-055>060-089>105-251000-
NORTHEAST KENTUCKY

CITY           SKY/WX    TMP DP  RH WIND       PRES   REMARKS
LEXINGTON      FAIR      63  57  81 CALM      30.04F
COVINGTON      FAIR      63  56  78 CALM      30.04F
FRANKFORT      FAIR      60  56  86 CALM      30.03F
$$

KYZ054-064>069-076>088-106>120-251000-
SOUTHEAST KENTUCKY

CITY           SKY/WX    TMP DP  RH WIND       PRES   REMARKS
JACKSON        FAIR      69  61  75 S5        30.07F
LONDON         FAIR      65  63  93 CALM      30.06F
SOMERSET       FAIR      63  63 100 MISG      30.06S
MIDDLESBORO    DRIZZLE   68  68 100 CALM      30.09S
MONTICELLO     FAIR      66  64  93 VRB7      30.07R
$$




USA.gov is the U.S. government's official web portal to all federal, state and local government web resources and services.